Weather History for Busan Airport, South Korea

Change the Weather History Date:

Monday, September 17, 2012

  Actual Average Record
Temperature  
Mean Temperature 72 °F -  
Max Temperature 77 °F 73 °F 87 °F (2010)
Min Temperature 68 °F 56 °F 60 °F (1998)
Cooling Degree Days 8    
Growing Degree Days 22 (Base 50)    
Moisture  
Dew Point 66 °F    
Average Humidity 80    
Maximum Humidity 89    
Minimum Humidity 73    
Precipitation  
Precipitation 0.00 in - - ()
Sea Level Pressure  
Sea Level Pressure 29.27 in    
Wind  
Wind Speed 24 mph ()    
Max Wind Speed 46 mph    
Max Gust Speed 69 mph    
Visibility 3.7 miles    
Events Rain    
Averages and records for this station are not official NWS values.
T = Trace of Precipitation, MM = Missing Value Source: Averaged Metar Reports

Daily Weather History Graph

Daily Weather History Graph

Search for Another Location

Airport:

Trip Planner

Search our weather history database for the weather conditions in past years. The results will help you decide how hot, cold, wet, or windy it might be!

Date:

Astronomy

Sep. 17, 2012 Rise Set
Actual Time 6:08 AM KST 6:28 PM KST
Civil Twilight 5:43 AM KST 6:53 PM KST
Nautical Twilight 5:13 AM KST 7:23 PM KST
Astronomical Twilight 4:43 AM KST 7:53 PM KST
Moon 7:10 AM KST (9/17) 6:53 PM KST (9/17)
Length of Visible Light 13h 10m
Length of Day
12h 19m
New Moon, 1% of the Moon is Illuminated
Sep 17
New Moon
Sep 23
First Quarter
Sep 30
Full
Oct 8
Last Quarter
Oct 15
New

Hourly Weather History & Observations

Time (KST) Temp. Dew Point Humidity Pressure Visibility Wind Dir Wind Speed Gust Speed Precip Events Conditions
3:00 AM 69.8 °F 64.4 °F 83% 29.54 in - NNE 16.1 mph - N/A Rain Light Rain
4:00 AM 69.8 °F 64.4 °F 83% 29.47 in - NNE 26.5 mph - N/A Rain Light Rain
5:00 AM 71.6 °F 66.2 °F 83% 29.42 in - NNE 28.8 mph - N/A Rain Light Rain
6:00 AM 73.4 °F 66.2 °F 78% 29.36 in 2.5 mi NE 19.6 mph 31.1 mph N/A Rain Light Rain
7:00 AM 75.2 °F 69.8 °F 83% 29.30 in - ENE 33.4 mph 44.9 mph N/A Rain Rain
7:15 AM 75.2 °F 69.8 °F 83% 29.30 in 1.5 mi ENE 28.8 mph 40.3 mph N/A Rain Rain
8:00 AM 75.2 °F 69.8 °F 83% 29.24 in 1.5 mi ENE 31.1 mph 48.3 mph N/A Rain Rain
8:35 AM 77.0 °F 69.8 °F 78% 29.21 in 1.5 mi ENE 36.8 mph 55.2 mph N/A Rain Rain
9:00 AM 75.2 °F 69.8 °F 83% 29.21 in 1.0 mi East 33.4 mph 47.2 mph N/A Rain Rain
9:02 AM 75.2 °F 69.8 °F 83% 29.18 in 1.0 mi East 36.8 mph 61.0 mph N/A Rain Heavy Rain
9:36 AM 75.2 °F 71.6 °F 89% 29.15 in 0.7 mi East 40.3 mph 63.3 mph N/A Rain Heavy Rain
9:43 AM 75.2 °F 71.6 °F 89% 29.12 in 0.7 mi East 42.6 mph 67.9 mph N/A Rain Heavy Rain
10:00 AM 77.0 °F 69.8 °F 78% 29.15 in 1.0 mi East 39.1 mph 61.0 mph N/A Rain Heavy Rain
11:00 AM 77.0 °F 69.8 °F 78% 29.12 in - ESE 34.5 mph 54.1 mph N/A Rain Rain
11:08 AM 75.2 °F 69.8 °F 83% 29.12 in 1.0 mi ESE 35.7 mph 59.8 mph N/A Rain Heavy Rain
11:21 AM 75.2 °F 69.8 °F 83% 29.12 in 1.0 mi SSE 46.0 mph 69.0 mph N/A Rain Heavy Rain
12:00 PM 73.4 °F 66.2 °F 78% 29.09 in - SSE 42.6 mph 57.5 mph N/A Rain Light Rain
12:15 PM 73.4 °F 66.2 °F 78% 29.09 in - SSE 38.0 mph 56.4 mph N/A Rain Light Rain
1:00 PM 71.6 °F 66.2 °F 83% 29.09 in - South 35.7 mph 47.2 mph N/A Rain Light Rain
2:00 PM 71.6 °F 64.4 °F 78% 29.15 in - South 32.2 mph 44.9 mph N/A Rain Light Rain
3:00 PM 71.6 °F 64.4 °F 78% 29.18 in 6.2 mi South 27.6 mph 42.6 mph N/A   Mostly Cloudy
3:23 PM 73.4 °F 66.2 °F 78% 29.21 in 6.2 mi South 20.7 mph 32.2 mph N/A   Mostly Cloudy
4:00 PM 71.6 °F 64.4 °F 78% 29.24 in 6.2 mi South 18.4 mph 29.9 mph N/A   Mostly Cloudy
5:00 PM 71.6 °F 64.4 °F 78% 29.27 in 6.2 mi South 18.4 mph - N/A   Mostly Cloudy
6:00 PM 71.6 °F 62.6 °F 73% 29.30 in 6.2 mi SSW 9.2 mph - N/A   Mostly Cloudy
7:00 PM 71.6 °F 62.6 °F 73% 29.36 in 6.2 mi SW 10.4 mph - N/A   Mostly Cloudy
7:28 PM 69.8 °F 62.6 °F 78% 29.39 in 6.2 mi SW 11.5 mph - N/A   Scattered Clouds
8:00 PM 69.8 °F 62.6 °F 78% 29.42 in 6.2 mi SW 11.5 mph - N/A   Partly Cloudy
9:00 PM 69.8 °F 60.8 °F 73% 29.47 in 6.2 mi SW 9.2 mph - N/A   Partly Cloudy
10:00 PM 68.0 °F 60.8 °F 78% 29.50 in 6.2 mi SW 9.2 mph - N/A   Scattered Clouds
11:00 PM 68.0 °F 60.8 °F 78% 29.56 in 6.2 mi SW 9.2 mph - N/A   Partly Cloudy